Weather History for Big Piney, WY

Change the Weather History Date:

Sunday, June 30, 2013

  Actual Average Record
Temperature  
Mean Temperature 72 °F 59 °F  
Max Temperature 92 °F 77 °F 92 °F (2013)
Min Temperature 51 °F 41 °F 30 °F (1993)
Degree Days  
Heating Degree Days 0 6  
Month to date heating degree days 217 304  
Since 1 June heating degree days 217 305  
Since 1 July heating degree days 9632 10431  
Cooling Degree Days 7 0  
Month to date cooling degree days 20 2  
Year to date cooling degree days 20 2  
Since 1 June cooling degree days 20 2  
Growing Degree Days 22 (Base 50)    
Moisture  
Dew Point 41 °F    
Average Humidity 48    
Maximum Humidity 89    
Minimum Humidity 7    
Precipitation  
Precipitation T in 0.02 in 0.22 in (1983)
Month to date precipitation T 0.79  
Year to date precipitation 1.70 3.26  
Sea Level Pressure  
Sea Level Pressure 30.00 in    
Wind  
Wind Speed 8 mph (NNW)    
Max Wind Speed 26 mph    
Max Gust Speed 32 mph    
Visibility 10 miles    
Events      
T = Trace of Precipitation, MM = Missing Value Source: NWS Daily Summary

Daily Weather History Graph

Daily Weather History Graph

Search for Another Location

Airport:

Trip Planner

Search our weather history database for the weather conditions in past years. The results will help you decide how hot, cold, wet, or windy it might be!

Date:

Astronomy

Jun. 30, 2013 Rise Set
Actual Time 5:46 AM MDT 9:01 PM MDT
Civil Twilight 5:11 AM MDT 9:36 PM MDT
Nautical Twilight 4:26 AM MDT 10:21 PM MDT
Astronomical Twilight 3:31 AM MDT 11:16 PM MDT
Moon 12:53 AM MDT (6/30) 2:14 PM MDT (6/30)
Length of Visible Light 16h 25m
Length of Day
15h 15m
Last Quarter, 45% of the Moon is Illuminated
Jun 30
Last Quarter
Jul 8
New
Jul 15
First Quarter
Jul 22
Full
Jul 29
Last Quarter

Hourly Weather History & Observations

Time (MDT) Temp. Dew Point Humidity Pressure Visibility Wind Dir Wind Speed Gust Speed Precip Events Conditions
12:53 AM 64.0 °F 42.1 °F 45% 30.07 in 10.0 mi NW 17.3 mph 23.0 mph N/A   Overcast
1:53 AM 64.0 °F 46.0 °F 52% 30.06 in 10.0 mi NW 24.2 mph 31.1 mph N/A   Overcast
2:53 AM 57.9 °F 51.1 °F 78% 30.11 in 10.0 mi North 8.1 mph - 0.00 in   Overcast
3:53 AM 57.0 °F 52.0 °F 83% 30.02 in 10.0 mi ENE 9.2 mph - 0.00 in   Scattered Clouds
4:53 AM 53.1 °F 50.0 °F 89% 30.06 in 10.0 mi NNW 8.1 mph - N/A   Clear
5:53 AM 53.1 °F 48.9 °F 86% 30.04 in 10.0 mi NNW 6.9 mph - N/A   Clear
6:53 AM 52.0 °F 48.0 °F 86% 30.06 in 10.0 mi NNW 6.9 mph - N/A   Clear
7:53 AM 61.0 °F 51.1 °F 70% 30.04 in 10.0 mi ESE 4.6 mph - N/A   Clear
8:53 AM 66.9 °F 51.1 °F 57% 30.04 in 10.0 mi Calm Calm - N/A   Clear
9:53 AM 75.0 °F 46.9 °F 37% 30.03 in 10.0 mi Variable 3.5 mph - N/A   Clear
10:53 AM 77.0 °F 43.0 °F 30% 30.03 in 10.0 mi Calm Calm - N/A   Clear
11:53 AM 80.1 °F 46.0 °F 30% 30.01 in 10.0 mi WSW 6.9 mph - N/A   Clear
12:53 PM 84.0 °F 39.0 °F 20% 29.97 in 10.0 mi West 6.9 mph 17.3 mph N/A   Clear
1:53 PM 84.0 °F 37.0 °F 19% 29.95 in 10.0 mi Variable 3.5 mph - N/A   Clear
2:53 PM 88.0 °F 37.0 °F 16% 29.95 in 10.0 mi North 8.1 mph 16.1 mph N/A   Clear
3:53 PM 90.0 °F 25.0 °F 10% 29.93 in 10.0 mi NNW 12.7 mph 19.6 mph N/A   Partly Cloudy
4:53 PM 91.0 °F 19.9 °F 7% 29.93 in 10.0 mi NW 11.5 mph 21.9 mph N/A   Clear
5:53 PM 89.1 °F 27.0 °F 11% 29.93 in 10.0 mi North 11.5 mph 20.7 mph N/A   Clear
6:53 PM 88.0 °F 34.0 °F 15% 29.93 in 10.0 mi NNE 15.0 mph 21.9 mph N/A   Clear
7:53 PM 84.9 °F 26.1 °F 12% 29.93 in 10.0 mi NNE 11.5 mph - N/A   Clear
8:53 PM 78.1 °F 39.0 °F 25% 29.95 in 10.0 mi East 11.5 mph - N/A   Clear
9:53 PM 70.0 °F 41.0 °F 35% 29.99 in 10.0 mi ESE 8.1 mph - N/A   Partly Cloudy
10:53 PM 64.9 °F 39.0 °F 39% 30.02 in 10.0 mi NW 6.9 mph - N/A   Clear
11:53 PM 61.0 °F 39.9 °F 46% 30.04 in 10.0 mi WNW 6.9 mph - N/A   Clear